| time (UTC) | temp F | wind direction | speed MPH | gust MPH | rain 1hr in | rain 24hr in | rain mn in | humidity % | barometer mb |
| 20260506182543 | 60 | 150 | 8.0 | 8.0 | 0.14 | 0.07 | 0.07 | 89 | 1005.4 |
| 20260506182040 | 60 | 126 | 3.0 | 4.0 | 0.12 | 0.06 | 0.06 | 89 | 1005.5 |
| 20260506181538 | 60 | 143 | 2.0 | 5.0 | 0.09 | 0.05 | 0.05 | 87 | 1005.5 |
| 20260506181035 | 60 | 302 | 2.0 | 5.0 | 0.07 | 0.04 | 0.04 | 86 | 1005.7 |
| 20260506180531 | 61 | 140 | 2.0 | 4.0 | 0.07 | 0.03 | 0.03 | 86 | 1005.8 |
| 20260506180028 | 61 | 137 | 4.0 | 9.0 | 0.05 | 0.03 | 0.03 | 84 | 1006.2 |
| 20260506175525 | 61 | 149 | 3.0 | 5.0 | 0.02 | 0.02 | 0.02 | 84 | 1006.1 |
| 20260506175021 | 61 | 231 | 4.0 | 8.0 | 0.05 | 0.02 | 0.02 | 83 | 1005.9 |
| 20260506174520 | 61 | 123 | 2.0 | 11.0 | 0.05 | 0.02 | 0.02 | 81 | 1006.2 |
| 20260506174015 | 62 | 226 | 10.0 | 12.0 | 0.05 | 0.01 | 0.01 | 79 | 1006.2 |
| 20260506173513 | 63 | 161 | 5.0 | 12.0 | 0.05 | 0.01 | 0.01 | 77 | 1006.4 |
| 20260506173010 | 64 | 157 | 0.0 | 9.0 | 0.00 | 0.00 | 0.00 | 75 | 1006.6 |
| 20260506172508 | 65 | 217 | 5.0 | 17.0 | 0.00 | 0.00 | 0.00 | 71 | 1006.3 |
| 20260506172003 | 66 | 152 | 7.0 | 15.0 | 0.00 | 0.00 | 0.00 | 67 | 1006.1 |
| 20260506171501 | 66 | 357 | 4.0 | 16.0 | 0.00 | 0.00 | 0.00 | 65 | 1006.2 |
| 20260506170958 | 67 | 160 | 6.0 | 12.0 | 0.00 | 0.00 | 0.00 | 64 | 1005.9 |
| 20260506170455 | 67 | 163 | 3.0 | 8.0 | 0.00 | 0.00 | 0.00 | 63 | 1005.9 |
| 20260506165953 | 68 | 122 | 3.0 | 9.0 | 0.00 | 0.00 | 0.00 | 63 | 1005.9 |
| 20260506165452 | 68 | 191 | 4.0 | 9.0 | 0.00 | 0.00 | 0.00 | 62 | 1005.9 |
| 20260506164947 | 68 | 198 | 5.0 | 7.0 | 0.00 | 0.00 | 0.00 | 62 | 1005.9 |
| 20260506164444 | 68 | 235 | 12.0 | 14.0 | 0.00 | 0.00 | 0.00 | 61 | 1006.1 |
| 20260506163942 | 68 | 178 | 4.0 | 12.0 | 0.00 | 0.00 | 0.00 | 61 | 1005.9 |
| 20260506163437 | 69 | 214 | 8.0 | 13.0 | 0.00 | 0.00 | 0.00 | 60 | 1005.9 |
| 20260506162932 | 69 | 263 | 2.0 | 14.0 | 0.00 | 0.00 | 0.00 | 60 | 1005.8 |
| 20260506162430 | 69 | 244 | 7.0 | 8.0 | 0.00 | 0.00 | 0.00 | 60 | 1006.1 |
| 20260506161927 | 68 | 225 | 5.0 | 10.0 | 0.00 | 0.00 | 0.00 | 60 | 1006.3 |
| 20260506161425 | 68 | 149 | 13.0 | 15.0 | 0.00 | 0.00 | 0.00 | 60 | 1006.3 |
| 20260506160922 | 68 | 131 | 6.0 | 8.0 | 0.00 | 0.00 | 0.00 | 60 | 1006.6 |
| 20260506160419 | 69 | 130 | 2.0 | 7.0 | 0.00 | 0.00 | 0.00 | 60 | 1006.5 |
| 20260506155917 | 69 | 181 | 5.0 | 7.0 | 0.00 | 0.00 | 0.00 | 58 | 1006.4 |
| 20260506155414 | 69 | 180 | 4.0 | 9.0 | 0.00 | 0.00 | 0.00 | 58 | 1006.5 |
| 20260506153531 | 69 | 195 | 3.0 | 14.0 | 0.00 | 0.00 | 0.00 | 59 | 1006.6 |
| 20260506153028 | 69 | 186 | 5.0 | 12.0 | 0.00 | 0.00 | 0.00 | 59 | 1006.6 |
| 20260506152525 | 69 | 214 | 3.0 | 17.0 | 0.00 | 0.00 | 0.00 | 59 | 1006.8 |
| 20260506152023 | 69 | 156 | 4.0 | 13.0 | 0.00 | 0.00 | 0.00 | 60 | 1006.8 |
| 20260506151520 | 68 | 298 | 3.0 | 13.0 | 0.00 | 0.00 | 0.00 | 61 | 1006.7 |
| 20260506151018 | 68 | 18 | 1.0 | 14.0 | 0.00 | 0.00 | 0.00 | 61 | 1007.0 |
| 20260506150514 | 68 | 170 | 4.0 | 6.0 | 0.00 | 0.00 | 0.00 | 62 | 1007.0 |
| 20260506150011 | 68 | 173 | 3.0 | 8.0 | 0.00 | 0.00 | 0.00 | 63 | 1007.0 |
| 20260506145507 | 68 | 134 | 6.0 | 13.0 | 0.00 | 0.00 | 0.00 | 62 | 1007.0 |
| 20260506145005 | 68 | 236 | 2.0 | 12.0 | 0.00 | 0.00 | 0.00 | 62 | 1006.9 |
| 20260506144501 | 67 | 194 | 6.0 | 13.0 | 0.00 | 0.00 | 0.00 | 63 | 1007.3 |
| 20260506143959 | 67 | 148 | 8.0 | 9.0 | 0.00 | 0.00 | 0.00 | 64 | 1007.4 |
| 20260506143456 | 66 | 223 | 5.0 | 11.0 | 0.00 | 0.00 | 0.00 | 66 | 1007.3 |
| 20260506142955 | 66 | 133 | 5.0 | 11.0 | 0.00 | 0.00 | 0.00 | 66 | 1007.3 |
| 20260506142452 | 66 | 151 | 2.0 | 7.0 | 0.00 | 0.00 | 0.00 | 66 | 1007.3 |
| 20260506141950 | 66 | 198 | 6.0 | 11.0 | 0.00 | 0.00 | 0.00 | 66 | 1007.2 |
| 20260506141447 | 66 | 239 | 2.0 | 7.0 | 0.00 | 0.00 | 0.00 | 67 | 1007.3 |
| 20260506140946 | 66 | 221 | 3.0 | 7.0 | 0.00 | 0.00 | 0.00 | 67 | 1007.2 |
| 20260506140442 | 66 | 229 | 6.0 | 8.0 | 0.00 | 0.00 | 0.00 | 67 | 1007.2 |
| 20260506135939 | 66 | 164 | 2.0 | 6.0 | 0.00 | 0.00 | 0.00 | 68 | 1007.0 |
| 20260506135437 | 66 | 257 | 3.0 | 13.0 | 0.00 | 0.00 | 0.00 | 68 | 1006.9 |
| 20260506134932 | 66 | 225 | 4.0 | 13.0 | 0.00 | 0.00 | 0.00 | 68 | 1006.9 |
| 20260506134429 | 65 | 147 | 4.0 | 11.0 | 0.00 | 0.00 | 0.00 | 68 | 1006.8 |
| 20260506133926 | 65 | 166 | 4.0 | 9.0 | 0.00 | 0.00 | 0.00 | 69 | 1007.0 |
| 20260506133423 | 65 | 231 | 5.0 | 12.0 | 0.00 | 0.00 | 0.00 | 70 | 1007.1 |
| 20260506132920 | 65 | 243 | 2.0 | 9.0 | 0.00 | 0.00 | 0.00 | 70 | 1007.1 |
| 20260506132416 | 65 | 222 | 5.0 | 15.0 | 0.00 | 0.00 | 0.00 | 71 | 1007.2 |
| 20260506131914 | 64 | 341 | 2.0 | 6.0 | 0.00 | 0.00 | 0.00 | 72 | 1007.2 |
| 20260506131410 | 64 | 157 | 7.0 | 7.0 | 0.00 | 0.00 | 0.00 | 73 | 1007.2 |
| 20260506130908 | 63 | 216 | 4.0 | 12.0 | 0.00 | 0.00 | 0.00 | 73 | 1007.3 |
| 20260506130404 | 63 | 192 | 1.0 | 10.0 | 0.00 | 0.00 | 0.00 | 75 | 1007.6 |
| 20260506125902 | 62 | 208 | 2.0 | 5.0 | 0.00 | 0.00 | 0.00 | 76 | 1007.8 |
| 20260506125400 | 62 | 198 | 4.0 | 13.0 | 0.00 | 0.00 | 0.00 | 76 | 1007.7 |
| 20260506124858 | 62 | 214 | 3.0 | 5.0 | 0.00 | 0.00 | 0.00 | 77 | 1007.6 |
| 20260506124355 | 61 | 158 | 3.0 | 5.0 | 0.00 | 0.00 | 0.00 | 77 | 1007.7 |
| 20260506123853 | 61 | 180 | 3.0 | 5.0 | 0.00 | 0.00 | 0.00 | 78 | 1007.8 |
| 20260506123351 | 61 | 178 | 2.0 | 10.0 | 0.00 | 0.00 | 0.00 | 78 | 1007.6 |
| 20260506122848 | 61 | 159 | 3.0 | 12.0 | 0.00 | 0.00 | 0.00 | 78 | 1007.5 |
| 20260506122344 | 61 | 258 | 5.0 | 12.0 | 0.00 | 0.00 | 0.00 | 78 | 1007.8 |
| 20260506121843 | 62 | 144 | 5.0 | 11.0 | 0.00 | 0.00 | 0.00 | 77 | 1007.7 |
| 20260506121339 | 61 | 137 | 3.0 | 9.0 | 0.00 | 0.00 | 0.00 | 78 | 1007.5 |
| 20260506120837 | 61 | 139 | 0.0 | 4.0 | 0.00 | 0.00 | 0.00 | 80 | 1007.9 |
| 20260506120334 | 60 | 132 | 5.0 | 9.0 | 0.00 | 0.00 | 0.00 | 79 | 1008.0 |
| 20260506115831 | 60 | 143 | 3.0 | 7.0 | 0.00 | 0.00 | 0.00 | 79 | 1008.0 |
| 20260506115330 | 60 | 126 | 6.0 | 10.0 | 0.00 | 0.00 | 0.00 | 79 | 1007.6 |
| 20260506114827 | 60 | 195 | 3.0 | 10.0 | 0.00 | 0.00 | 0.00 | 79 | 1007.7 |
| 20260506114325 | 60 | 231 | 4.0 | 11.0 | 0.00 | 0.00 | 0.00 | 80 | 1007.5 |
| 20260506113823 | 60 | 152 | 10.0 | 12.0 | 0.00 | 0.00 | 0.00 | 81 | 1007.6 |
| 20260506113320 | 59 | 209 | 1.0 | 10.0 | 0.00 | 0.00 | 0.00 | 81 | 1007.7 |
| 20260506112817 | 59 | 250 | 3.0 | 9.0 | 0.00 | 0.00 | 0.00 | 82 | 1007.9 |
| 20260506112314 | 58 | 207 | 2.0 | 10.0 | 0.00 | 0.00 | 0.00 | 83 | 1007.9 |
| 20260506111811 | 58 | 197 | 6.0 | 9.0 | 0.00 | 0.00 | 0.00 | 84 | 1007.9 |
| 20260506111309 | 58 | 247 | 3.0 | 4.0 | 0.00 | 0.00 | 0.00 | 84 | 1007.9 |
| 20260506110807 | 58 | 153 | 7.0 | 11.0 | 0.00 | 0.00 | 0.00 | 83 | 1008.2 |
| 20260506110304 | 58 | 124 | 4.0 | 7.0 | 0.00 | 0.00 | 0.00 | 83 | 1008.3 |
| 20260506105800 | 58 | 214 | 5.0 | 13.0 | 0.00 | 0.00 | 0.00 | 83 | 1008.3 |
| 20260506105257 | 58 | 144 | 4.0 | 8.0 | 0.00 | 0.00 | 0.00 | 83 | 1007.9 |
| 20260506104755 | 58 | 145 | 4.0 | 9.0 | 0.00 | 0.00 | 0.00 | 83 | 1007.9 |
| 20260506104252 | 58 | 164 | 2.0 | 8.0 | 0.00 | 0.00 | 0.00 | 84 | 1007.8 |
| 20260506103749 | 57 | 146 | 4.0 | 7.0 | 0.00 | 0.00 | 0.00 | 84 | 1007.7 |
| 20260506103247 | 57 | 208 | 3.0 | 10.0 | 0.00 | 0.00 | 0.00 | 85 | 1007.7 |
| 20260506102744 | 57 | 207 | 4.0 | 6.0 | 0.00 | 0.00 | 0.00 | 85 | 1007.7 |
| 20260506102242 | 57 | 147 | 7.0 | 7.0 | 0.00 | 0.00 | 0.00 | 85 | 1007.7 |
| 20260506101739 | 57 | 189 | 2.0 | 9.0 | 0.00 | 0.00 | 0.00 | 85 | 1007.9 |
| 20260506101235 | 57 | 132 | 3.0 | 8.0 | 0.00 | 0.00 | 0.00 | 85 | 1007.7 |
| 20260506100733 | 57 | 174 | 4.0 | 12.0 | 0.00 | 0.00 | 0.00 | 85 | 1007.6 |
| 20260506100231 | 57 | 71 | 1.0 | 9.0 | 0.00 | 0.00 | 0.00 | 84 | 1007.9 |
| 20260506095729 | 57 | 193 | 2.0 | 14.0 | 0.00 | 0.00 | 0.00 | 84 | 1007.7 |
| 20260506095226 | 57 | 175 | 3.0 | 7.0 | 0.00 | 0.00 | 0.00 | 83 | 1007.7 |
| 20260506094723 | 57 | 138 | 9.0 | 10.0 | 0.00 | 0.00 | 0.00 | 84 | 1007.7 |
| 20260506094221 | 57 | 230 | 2.0 | 9.0 | 0.00 | 0.00 | 0.00 | 84 | 1007.6 |
| 20260506093720 | 57 | 167 | 2.0 | 7.0 | 0.00 | 0.00 | 0.00 | 83 | 1007.8 |
| 20260506093216 | 57 | 125 | 5.0 | 7.0 | 0.00 | 0.00 | 0.00 | 83 | 1007.8 |
| 20260506092714 | 57 | 144 | 3.0 | 6.0 | 0.00 | 0.00 | 0.00 | 83 | 1007.8 |
| 20260506092211 | 57 | 226 | 1.0 | 11.0 | 0.00 | 0.00 | 0.00 | 82 | 1007.7 |
| 20260506091709 | 57 | 168 | 5.0 | 6.0 | 0.00 | 0.00 | 0.00 | 82 | 1007.7 |
| 20260506091206 | 58 | 152 | 8.0 | 9.0 | 0.00 | 0.00 | 0.00 | 82 | 1007.6 |
| 20260506090704 | 58 | 169 | 7.0 | 9.0 | 0.00 | 0.00 | 0.00 | 82 | 1007.8 |
| 20260506090200 | 58 | 134 | 10.0 | 10.0 | 0.00 | 0.00 | 0.00 | 81 | 1007.8 |
| 20260506085657 | 58 | 144 | 4.0 | 9.0 | 0.00 | 0.00 | 0.00 | 81 | 1007.8 |
| 20260506085153 | 58 | 116 | 0.0 | 10.0 | 0.00 | 0.00 | 0.00 | 80 | 1007.8 |
| 20260506084650 | 58 | 136 | 2.0 | 13.0 | 0.00 | 0.00 | 0.00 | 80 | 1007.6 |
| 20260506084147 | 58 | 137 | 7.0 | 11.0 | 0.00 | 0.00 | 0.00 | 81 | 1007.7 |
| 20260506083644 | 58 | 135 | 6.0 | 6.0 | 0.00 | 0.00 | 0.00 | 80 | 1007.8 |
| 20260506083142 | 58 | 128 | 3.0 | 6.0 | 0.00 | 0.00 | 0.00 | 80 | 1007.6 |
| 20260506082638 | 58 | 76 | 2.0 | 6.0 | 0.00 | 0.00 | 0.00 | 80 | 1007.7 |
| 20260506082133 | 58 | 136 | 9.0 | 10.0 | 0.00 | 0.00 | 0.00 | 80 | 1007.9 |
| 20260506081632 | 58 | 165 | 4.0 | 6.0 | 0.00 | 0.00 | 0.00 | 80 | 1007.8 |
| 20260506081129 | 58 | 196 | 4.0 | 7.0 | 0.00 | 0.00 | 0.00 | 79 | 1008.1 |
| 20260506080627 | 58 | 120 | 2.0 | 7.0 | 0.00 | 0.00 | 0.00 | 79 | 1007.8 |
| 20260506080123 | 58 | 139 | 3.0 | 6.0 | 0.00 | 0.00 | 0.00 | 79 | 1007.8 |
| 20260506073107 | 58 | 169 | 2.0 | 6.0 | 0.00 | 0.00 | 0.00 | 79 | 1007.8 |
| 20260506072604 | 58 | 158 | 4.0 | 6.0 | 0.00 | 0.00 | 0.00 | 79 | 1008.0 |
| 20260506072102 | 59 | 104 | 1.0 | 10.0 | 0.00 | 0.00 | 0.00 | 79 | 1007.8 |
| 20260506071559 | 59 | 117 | 2.0 | 6.0 | 0.00 | 0.00 | 0.00 | 78 | 1007.8 |
| 20260506071057 | 59 | 160 | 4.0 | 8.0 | 0.00 | 0.00 | 0.00 | 78 | 1007.8 |
| 20260506070554 | 59 | 223 | 2.0 | 6.0 | 0.00 | 0.00 | 0.00 | 78 | 1007.5 |
| 20260506062028 | 59 | 174 | 2.0 | 9.0 | 0.00 | 0.00 | 0.00 | 76 | 1007.6 |
| 20260506061523 | 60 | 222 | 3.0 | 10.0 | 0.00 | 0.00 | 0.00 | 75 | 1007.7 |
| 20260506061021 | 60 | 142 | 5.0 | 10.0 | 0.00 | 0.00 | 0.00 | 75 | 1007.5 |
| 20260506060520 | 60 | 191 | 4.0 | 9.0 | 0.00 | 0.00 | 0.00 | 74 | 1007.8 |
| 20260506050948 | 61 | 179 | 9.0 | 9.0 | 0.00 | 0.00 | 0.00 | 70 | 1008.0 |
| 20260506050446 | 61 | 165 | 3.0 | 14.0 | 0.00 | 0.00 | 0.00 | 69 | 1008.1 |
| 20260506044936 | 62 | 292 | 4.0 | 12.0 | 0.00 | 0.00 | 0.00 | 68 | 1008.3 |
| 20260506044435 | 62 | 245 | 2.0 | 9.0 | 0.00 | 0.00 | 0.00 | 67 | 1008.1 |
| 20260506043931 | 62 | 224 | 3.0 | 10.0 | 0.00 | 0.00 | 0.00 | 67 | 1008.0 |
| 20260506043428 | 62 | 176 | 6.0 | 13.0 | 0.00 | 0.00 | 0.00 | 67 | 1008.1 |
| 20260506042926 | 62 | 138 | 3.0 | 7.0 | 0.00 | 0.00 | 0.00 | 66 | 1008.0 |
| 20260506042425 | 62 | 312 | 3.0 | 6.0 | 0.00 | 0.00 | 0.00 | 66 | 1008.2 |
| 20260506041923 | 62 | 208 | 2.0 | 10.0 | 0.00 | 0.00 | 0.00 | 66 | 1008.0 |
| 20260506041420 | 62 | 212 | 6.0 | 12.0 | 0.00 | 0.00 | 0.00 | 66 | 1007.9 |
| 20260506040917 | 62 | 239 | 3.0 | 8.0 | 0.00 | 0.00 | 0.00 | 66 | 1008.1 |
| 20260506040415 | 62 | 89 | 0.0 | 7.0 | 0.00 | 0.00 | 0.00 | 65 | 1008.1 |
| 20260506035911 | 62 | 240 | 9.0 | 9.0 | 0.00 | 0.00 | 0.00 | 65 | 1008.1 |
| 20260506035409 | 62 | 205 | 4.0 | 6.0 | 0.00 | 0.00 | 0.00 | 65 | 1008.2 |
| 20260506034905 | 62 | 209 | 4.0 | 14.0 | 0.00 | 0.00 | 0.00 | 64 | 1008.1 |
| 20260506034402 | 62 | 168 | 6.0 | 9.0 | 0.00 | 0.00 | 0.00 | 64 | 1008.1 |
| 20260506033859 | 62 | 161 | 2.0 | 11.0 | 0.00 | 0.00 | 0.00 | 64 | 1008.2 |
| 20260506033356 | 62 | 283 | 4.0 | 14.0 | 0.00 | 0.00 | 0.00 | 64 | 1008.2 |
| 20260506032853 | 62 | 146 | 7.0 | 11.0 | 0.00 | 0.00 | 0.00 | 65 | 1008.2 |
| 20260506032350 | 62 | 257 | 9.0 | 15.0 | 0.00 | 0.00 | 0.00 | 65 | 1008.1 |
| 20260506031847 | 62 | 203 | 4.0 | 11.0 | 0.00 | 0.00 | 0.00 | 65 | 1008.2 |
| 20260506031344 | 62 | 159 | 0.0 | 10.0 | 0.00 | 0.00 | 0.00 | 65 | 1008.2 |
| 20260506030842 | 61 | 264 | 4.0 | 7.0 | 0.00 | 0.00 | 0.00 | 65 | 1008.0 |
| 20260506030340 | 61 | 155 | 3.0 | 7.0 | 0.00 | 0.00 | 0.00 | 65 | 1008.1 |
| 20260506025836 | 61 | 144 | 7.0 | 8.0 | 0.00 | 0.00 | 0.00 | 65 | 1008.0 |
| 20260506025332 | 61 | 85 | 2.0 | 6.0 | 0.00 | 0.00 | 0.00 | 66 | 1008.1 |
| 20260506024830 | 61 | 135 | 2.0 | 7.0 | 0.00 | 0.00 | 0.00 | 65 | 1008.2 |
| 20260506024326 | 61 | 139 | 2.0 | 9.0 | 0.00 | 0.00 | 0.00 | 65 | 1008.1 |
| 20260506023823 | 61 | 138 | 3.0 | 9.0 | 0.00 | 0.00 | 0.00 | 65 | 1008.1 |
| 20260506023320 | 61 | 249 | 4.0 | 10.0 | 0.00 | 0.00 | 0.00 | 65 | 1008.2 |
| 20260506022816 | 61 | 173 | 2.0 | 8.0 | 0.00 | 0.00 | 0.00 | 65 | 1008.2 |
| 20260506022314 | 61 | 80 | 2.0 | 4.0 | 0.00 | 0.00 | 0.00 | 65 | 1008.4 |
| 20260506021812 | 61 | 69 | 2.0 | 6.0 | 0.00 | 0.00 | 0.00 | 65 | 1008.3 |
| 20260506021309 | 61 | 248 | 7.0 | 7.0 | 0.00 | 0.00 | 0.00 | 64 | 1008.2 |
| 20260506020805 | 61 | 196 | 5.0 | 10.0 | 0.00 | 0.00 | 0.00 | 64 | 1008.2 |
| 20260506020303 | 61 | 184 | 2.0 | 9.0 | 0.00 | 0.00 | 0.00 | 64 | 1008.1 |
| 20260506015801 | 61 | 153 | 2.0 | 4.0 | 0.00 | 0.00 | 0.00 | 64 | 1008.1 |
| 20260506015258 | 61 | 70 | 3.0 | 11.0 | 0.00 | 0.00 | 0.00 | 64 | 1008.1 |
| 20260506014754 | 61 | 156 | 7.0 | 9.0 | 0.00 | 0.00 | 0.00 | 63 | 1008.0 |
| 20260506014251 | 62 | 232 | 6.0 | 6.0 | 0.00 | 0.00 | 0.00 | 63 | 1008.0 |
| 20260506013748 | 62 | 186 | 1.0 | 9.0 | 0.00 | 0.00 | 0.00 | 62 | 1008.0 |
| 20260506013246 | 62 | 227 | 5.0 | 6.0 | 0.00 | 0.00 | 0.00 | 62 | 1007.7 |
| 20260506012742 | 62 | 147 | 7.0 | 9.0 | 0.00 | 0.00 | 0.00 | 61 | 1007.9 |
| 20260506012239 | 63 | 171 | 4.0 | 9.0 | 0.00 | 0.00 | 0.00 | 61 | 1007.9 |
| 20260506011736 | 63 | 146 | 9.0 | 11.0 | 0.00 | 0.00 | 0.00 | 60 | 1007.7 |
| 20260506011232 | 63 | 107 | 6.0 | 7.0 | 0.00 | 0.00 | 0.00 | 60 | 1007.7 |
| 20260506010731 | 63 | 175 | 2.0 | 10.0 | 0.00 | 0.00 | 0.00 | 60 | 1007.5 |
| 20260506010228 | 63 | 142 | 4.0 | 8.0 | 0.00 | 0.00 | 0.00 | 59 | 1007.5 |
| 20260506005725 | 64 | 217 | 4.0 | 6.0 | 0.00 | 0.00 | 0.00 | 60 | 1007.4 |
| 20260506005222 | 64 | 173 | 3.0 | 10.0 | 0.00 | 0.00 | 0.00 | 59 | 1007.3 |
| 20260506004717 | 64 | 177 | 3.0 | 11.0 | 0.00 | 0.00 | 0.00 | 59 | 1007.3 |
| 20260506004216 | 64 | 202 | 5.0 | 9.0 | 0.00 | 0.00 | 0.00 | 59 | 1007.4 |
| 20260506003711 | 64 | 123 | 4.0 | 10.0 | 0.00 | 0.00 | 0.00 | 58 | 1007.3 |
| 20260506003208 | 65 | 139 | 4.0 | 12.0 | 0.00 | 0.00 | 0.00 | 58 | 1007.1 |
| 20260506002704 | 65 | 254 | 10.0 | 11.0 | 0.00 | 0.00 | 0.00 | 57 | 1007.1 |
| 20260506002200 | 65 | 145 | 4.0 | 13.0 | 0.00 | 0.00 | 0.00 | 57 | 1007.0 |
| 20260506001656 | 65 | 237 | 4.0 | 11.0 | 0.00 | 0.00 | 0.00 | 58 | 1007.0 |
| 20260506001154 | 65 | 167 | 5.0 | 9.0 | 0.00 | 0.00 | 0.00 | 57 | 1006.8 |
| 20260506000650 | 65 | 223 | 3.0 | 9.0 | 0.00 | 0.00 | 0.00 | 57 | 1006.8 |
| 20260506000148 | 66 | 143 | 3.0 | 12.0 | 0.00 | 0.00 | 0.00 | 56 | 1006.6 |
| 20260505235646 | 66 | 147 | 4.0 | 8.0 | 0.00 | 0.00 | 0.00 | 56 | 1006.6 |
| 20260505235143 | 66 | 152 | 4.0 | 6.0 | 0.00 | 0.00 | 0.00 | 55 | 1006.6 |
| 20260505234639 | 66 | 144 | 2.0 | 15.0 | 0.00 | 0.00 | 0.00 | 54 | 1006.6 |
| 20260505234136 | 67 | 168 | 3.0 | 9.0 | 0.00 | 0.00 | 0.00 | 54 | 1006.6 |
| 20260505233633 | 67 | 231 | 4.0 | 8.0 | 0.00 | 0.00 | 0.00 | 53 | 1006.5 |
| 20260505233131 | 67 | 240 | 7.0 | 8.0 | 0.00 | 0.00 | 0.00 | 53 | 1006.5 |
| 20260505232628 | 68 | 111 | 4.0 | 10.0 | 0.00 | 0.00 | 0.00 | 52 | 1006.3 |
| 20260505232126 | 68 | 231 | 5.0 | 13.0 | 0.00 | 0.00 | 0.00 | 52 | 1006.2 |
| 20260505231623 | 68 | 184 | 7.0 | 17.0 | 0.00 | 0.00 | 0.00 | 52 | 1006.2 |
| 20260505231121 | 69 | 75 | 3.0 | 6.0 | 0.00 | 0.00 | 0.00 | 51 | 1005.8 |
| 20260505230619 | 69 | 186 | 2.0 | 11.0 | 0.00 | 0.00 | 0.00 | 50 | 1005.8 |
| 20260505230115 | 69 | 99 | 3.0 | 11.0 | 0.00 | 0.00 | 0.00 | 49 | 1005.9 |
| 20260505225612 | 70 | 255 | 4.0 | 6.0 | 0.00 | 0.00 | 0.00 | 50 | 1005.8 |
| 20260505225108 | 70 | 264 | 4.0 | 15.0 | 0.00 | 0.00 | 0.00 | 48 | 1005.6 |
| 20260505224605 | 70 | 341 | 2.0 | 14.0 | 0.00 | 0.00 | 0.00 | 49 | 1005.7 |
| 20260505224102 | 71 | 126 | 4.0 | 10.0 | 0.00 | 0.00 | 0.00 | 48 | 1005.8 |
| 20260505223559 | 70 | 151 | 2.0 | 6.0 | 0.00 | 0.00 | 0.00 | 48 | 1005.8 |
| 20260505223055 | 71 | 178 | 4.0 | 6.0 | 0.00 | 0.00 | 0.00 | 47 | 1005.4 |
| 20260505222552 | 72 | 134 | 3.0 | 9.0 | 0.00 | 0.00 | 0.00 | 46 | 1005.4 |
| 20260505222048 | 72 | 208 | 0.0 | 11.0 | 0.00 | 0.00 | 0.00 | 45 | 1005.2 |
| 20260505221545 | 72 | 188 | 3.0 | 14.0 | 0.00 | 0.00 | 0.00 | 45 | 1005.3 |
| 20260505221041 | 73 | 128 | 5.0 | 13.0 | 0.00 | 0.00 | 0.00 | 45 | 1005.0 |
| 20260505220539 | 73 | 252 | 5.0 | 11.0 | 0.00 | 0.00 | 0.00 | 45 | 1005.0 |
| 20260505220037 | 73 | 203 | 4.0 | 13.0 | 0.00 | 0.00 | 0.00 | 45 | 1005.3 |
| 20260505215535 | 74 | 187 | 5.0 | 13.0 | 0.00 | 0.00 | 0.00 | 44 | 1005.5 |
| 20260505215032 | 74 | 258 | 5.0 | 16.0 | 0.00 | 0.00 | 0.00 | 44 | 1005.4 |
| 20260505214530 | 73 | 180 | 4.0 | 11.0 | 0.00 | 0.00 | 0.00 | 45 | 1005.4 |
| 20260505214026 | 73 | 156 | 2.0 | 9.0 | 0.00 | 0.00 | 0.00 | 46 | 1005.0 |
| 20260505213525 | 74 | 154 | 4.0 | 8.0 | 0.00 | 0.00 | 0.00 | 45 | 1005.2 |
| 20260505213021 | 74 | 205 | 5.0 | 14.0 | 0.00 | 0.00 | 0.00 | 44 | 1005.4 |
| 20260505212517 | 75 | 133 | 3.0 | 12.0 | 0.00 | 0.00 | 0.00 | 43 | 1005.3 |
| 20260505212014 | 76 | 170 | 6.0 | 15.0 | 0.00 | 0.00 | 0.00 | 42 | 1005.1 |
| 20260505211512 | 76 | 219 | 1.0 | 7.0 | 0.00 | 0.00 | 0.00 | 43 | 1004.9 |
| 20260505211008 | 76 | 195 | 5.0 | 19.0 | 0.00 | 0.00 | 0.00 | 42 | 1004.9 |
| 20260505210505 | 76 | 192 | 3.0 | 15.0 | 0.00 | 0.00 | 0.00 | 41 | 1005.1 |
| 20260505210001 | 77 | 228 | 5.0 | 12.0 | 0.00 | 0.00 | 0.00 | 41 | 1004.8 |
| 20260505205500 | 76 | 168 | 3.0 | 14.0 | 0.00 | 0.00 | 0.00 | 42 | 1004.8 |
| 20260505204956 | 76 | 231 | 15.0 | 17.0 | 0.00 | 0.00 | 0.00 | 40 | 1005.0 |
| 20260505204454 | 77 | 315 | 8.0 | 13.0 | 0.00 | 0.00 | 0.00 | 39 | 1005.1 |
| 20260505203951 | 77 | 239 | 10.0 | 13.0 | 0.00 | 0.00 | 0.00 | 40 | 1004.8 |
| 20260505203448 | 77 | 213 | 10.0 | 22.0 | 0.00 | 0.00 | 0.00 | 38 | 1005.0 |
| 20260505202944 | 78 | 167 | 9.0 | 17.0 | 0.00 | 0.00 | 0.00 | 38 | 1005.0 |
| 20260505202441 | 78 | 239 | 5.0 | 19.0 | 0.00 | 0.00 | 0.00 | 38 | 1005.0 |
| 20260505201937 | 79 | 139 | 5.0 | 11.0 | 0.00 | 0.00 | 0.00 | 38 | 1005.2 |
| 20260505201434 | 78 | 229 | 14.0 | 17.0 | 0.00 | 0.00 | 0.00 | 36 | 1005.1 |
| 20260505200932 | 79 | 161 | 7.0 | 13.0 | 0.00 | 0.00 | 0.00 | 37 | 1004.9 |
| 20260505200429 | 79 | 206 | 5.0 | 16.0 | 0.00 | 0.00 | 0.00 | 38 | 1004.8 |
| 20260505195925 | 79 | 176 | 4.0 | 16.0 | 0.00 | 0.00 | 0.00 | 36 | 1004.9 |
| 20260505195422 | 79 | 215 | 11.0 | 16.0 | 0.00 | 0.00 | 0.00 | 35 | 1005.1 |
| 20260505194920 | 79 | 224 | 11.0 | 23.0 | 0.00 | 0.00 | 0.00 | 36 | 1005.0 |
| 20260505194417 | 79 | 231 | 4.0 | 17.0 | 0.00 | 0.00 | 0.00 | 37 | 1004.6 |
| 20260505193916 | 80 | 230 | 15.0 | 15.0 | 0.00 | 0.00 | 0.00 | 35 | 1004.8 |
| 20260505193415 | 79 | 230 | 12.0 | 15.0 | 0.00 | 0.00 | 0.00 | 36 | 1004.8 |
| 20260505192912 | 80 | 213 | 8.0 | 21.0 | 0.00 | 0.00 | 0.00 | 35 | 1004.8 |
| 20260505192410 | 81 | 271 | 3.0 | 10.0 | 0.00 | 0.00 | 0.00 | 36 | 1004.9 |
| 20260505191908 | 79 | 281 | 8.0 | 22.0 | 0.00 | 0.00 | 0.00 | 35 | 1004.8 |
| 20260505191406 | 80 | 243 | 7.0 | 13.0 | 0.00 | 0.00 | 0.00 | 35 | 1005.0 |
| 20260505190902 | 80 | 235 | 12.0 | 16.0 | 0.00 | 0.00 | 0.00 | 36 | 1005.1 |
| 20260505190358 | 80 | 233 | 11.0 | 18.0 | 0.00 | 0.00 | 0.00 | 35 | 1005.3 |
| 20260505185858 | 79 | 167 | 8.0 | 17.0 | 0.00 | 0.00 | 0.00 | 35 | 1005.1 |
| 20260505185355 | 79 | 249 | 18.0 | 23.0 | 0.00 | 0.00 | 0.00 | 35 | 1005.4 |
| 20260505184852 | 79 | 219 | 6.0 | 28.0 | 0.00 | 0.00 | 0.00 | 34 | 1005.4 |
| 20260505184349 | 79 | 230 | 6.0 | 22.0 | 0.00 | 0.00 | 0.00 | 34 | 1005.4 |
| 20260505183846 | 80 | 221 | 9.0 | 14.0 | 0.00 | 0.00 | 0.00 | 35 | 1005.4 |
| 20260505183343 | 80 | 141 | 9.0 | 14.0 | 0.00 | 0.00 | 0.00 | 35 | 1005.5 |